Regional Weather Roundup
Issued by NWS

Home | Current Version | Previous Version | Graphics & Text | Print | Product List | Glossary On
Versions: 1 2 3 4 5 6 7 8 9 10 11 12 13 14 15 16 17 18 19 20 21 22 23 24 25 26 27 28 29 30 31 32 33 34 35 36 37 38 39 40 41 42 43 44 45 46 47 48 49 50
509
ASUS44 KLIX 301601
RWRLA
LOUISIANA WEATHER ROUNDUP
NATIONAL WEATHER SERVICE NEW ORLEANS LA
1100 AM CDT WED JUL 30 2014

NOTE: "FAIR" INDICATES FEW OR NO CLOUDS BELOW 12,000 FEET WITH NO
      SIGNIFICANT WEATHER AND/OR OBSTRUCTIONS TO VISIBILITY.
      SKY/WX - SKY CONDITION AND SIGNIFICANT WEATHER.
      TMP - AIR TEMPERATURE.    DP   - DEWPOINT TEMPERATURE.
      RH  - RELATIVE HUMIDITY.  PRES - PRESSURE.
      HX  - HEAT INDEX.         WCI  - WIND CHILL INDEX.

*  THESE STATIONS ARE NOT NWS OR FAA STATIONS AND ARE NOT UNDER
   NWS QUALITY CONTROL.

LAZ040-048-061>063-065-066-069-301700-
SOUTHEAST LOUISIANA

CITY           SKY/WX    TMP DP  RH WIND       PRES   REMARKS
N.O. AUDUBON     N/A     88  62  41 MISG        N/A
N.O. INTL ARPT FAIR      84  62  47 NE10      30.08R
N.O. LAKEFRONT FAIR      80  59  48 NE8       30.09R
N.O. DOWNTOWN* PTSUNNY   82  57  42 N3        30.08S
SLIDELL        FAIR      81  59  47 VRB6      30.08S
BATON ROUGE    FAIR      81  61  50 E7        30.10S
BOOTHVILLE     FAIR      83  69  62 NE7       30.07R
BELLE CHASSE   FAIR      82  63  52 E5        30.07S
BOGALUSA*        N/A     80  60  49 NE6       30.11S
GALLIANO*      NOT AVBL
NEW ROADS*     FAIR      79  63  56 NE6       30.10S
GONZALES*      FAIR      80  64  58 CALM      30.08S
HAMMOND*       FAIR      82  57  42 NE3       30.11R
HOUMA*         SUNNY     84  64  51 N7        30.07S
PORT FOURCHON* SUNNY     84  72  65 NE8       30.08S

$$

LAZ041-044-053-054-301700-
SOUTHWEST LOUISIANA

CITY           SKY/WX    TMP DP  RH WIND       PRES   REMARKS
LAKE CHARLES   FAIR      84  66  54 E9        30.09R
LAFAYETTE      FAIR      82  66  58 NE5       30.09S
PATTERSON      FAIR      84  68  58 N3        30.12R
SALT POINT       N/A     85  71  63 VRB3      30.07S
NEW IBERIA     FAIR      84  66  54 N6        30.10R
CHENAULT AIRPK NOT AVBL

$$

LAZ027-028-301700-
CENTRAL LOUISIANA

CITY           SKY/WX    TMP DP  RH WIND       PRES   REMARKS
FORT POLK      FAIR      83  61  47 VRB5      30.11R
ALEXANDRIA INT FAIR      82  60  47 VRB3      30.10R
ALEXANDRIA     FAIR      82  63  52 CALM      30.11S

$$

LAZ001-002-301700-
NORTHWEST LOUISIANA

CITY           SKY/WX    TMP DP  RH WIND       PRES   REMARKS
SHREVEPORT     CLOUDY    82  62  50 S8        30.11R
BARKSDALE AFB  FAIR      81  60  50 SE7       30.12R
DTN SHREVEPORT PTSUNNY   82  58  43 SE9       30.11S

$$

LAZ014-016-301700-
NORTHEAST LOUISIANA

CITY           SKY/WX    TMP DP  RH WIND       PRES   REMARKS
MONROE         FAIR      79  59  50 CALM      30.13R
TALLULAH       FAIR      79  56  45 SE6       30.12S

$$




USA.gov is the U.S. government's official web portal to all federal, state and local government web resources and services.